Flag for U.S.A. Weather past 2 weeks in Pittsburgh, Pennsylvania, U.S.A.

Now
41 °F

Overcast.


Feels Like: 41 °F
Forecast: 39 / 52 °F
Wind: No wind

Location: Allegheny County Airport

Current Time: Mar 26, 2015 at 7:30:58 PM

Latest Report: Mar 26, 2015 at 6:53 PM


Visibility: 10 mi

Pressure: 29.82 "Hg

Humidity: 86%

Dew point: 37 °F

Location of PittsburghLocation

Historic Weather in Pittsburgh — Graph

°F

Pittsburgh temperature yesterday

Maximum temperature yesterday: 67 °F (at 5:53 PM)
Minimum temperature yesterday: 34 °F (at 1:53 AM)
Average temperature yesterday: 49 °F

Past Weeks' High & Low Weather Summary

 TemperatureHumidityPressure
High67 °F (Mar 25, 5:53 PM)92% (Mar 20, 10:53 AM)30.60 "Hg (Mar 20, 10:53 AM)
Low20 °F (Mar 23, 5:53 AM)15% (Mar 19, 5:53 PM)29.70 "Hg (Mar 17, 4:53 AM)
Average40 °F56%30.15 "Hg
* Reported Mar 11 7:00 PM — Mar 26 6:00 PM, Pittsburgh, Weather by CustomWeather, © 2015

Note: Actual official high and low records may vary slightly from our data, if they occured in-between our weather recording intervals... More about our weather records

Advertising

Pittsburgh weather history for previous 24 hours

 ConditionsComfort  
Time TempWeatherWind HumidityBarometerVisibility
6:00 PM
Thu, Mar 26
41 °FLight rain. Cloudy.9 mph82%29.78 "Hg10 mi
4:53 PM42 °FOvercast.9 mph82%29.80 "Hg10 mi
4:00 PM42 °FLight rain. Overcast.13 mph82%29.75 "Hg10 mi
2:53 PM43 °FLight rain. Mostly cloudy.12 mph82%29.75 "Hg5 mi
1:53 PM43 °FLight rain. Mostly cloudy.16 mph82%29.75 "Hg5 mi
1:00 PM44 °FRain. Mostly cloudy.14 mph85%29.71 "Hg2 mi
11:53 AM48 °FLight rain. More clouds than sun.10 mph77%29.74 "Hg5 mi
10:53 AM50 °FMostly cloudy.6 mph74%29.75 "Hg6 mi
9:53 AM48 °FMostly cloudy.7 mph80%29.77 "Hg4 mi
8:53 AM48 °FCloudy.6 mph77%29.78 "Hg5 mi
7:53 AM47 °FPartly cloudy.6 mph80%29.79 "Hg6 mi
6:53 AM46 °FPassing clouds.6 mph83%29.82 "Hg6 mi
5:53 AM47 °FPartly cloudy.No wind80%29.86 "Hg8 mi
4:53 AM48 °FPassing clouds.5 mph80%29.90 "Hg9 mi
3:53 AM52 °FPartly cloudy.No wind72%29.93 "Hg10 mi
2:53 AM53 °FClear.5 mph69%29.96 "Hg10 mi
1:53 AM54 °FClear.5 mph67%29.97 "Hg10 mi
12:53 AM55 °FClear.6 mph62%29.98 "Hg10 mi
11:53 PM
Wed, Mar 25
56 °FClear.5 mph60%30.01 "Hg10 mi
10:53 PM57 °FClear.5 mph60%30.03 "Hg10 mi
9:53 PM59 °FClear.6 mph56%30.04 "Hg10 mi
8:53 PM61 °FPassing clouds.7 mph54%30.03 "Hg10 mi
7:53 PM63 °FSunny.7 mph52%30.01 "Hg10 mi
Weather by CustomWeather, © 2015

See weather overviewHow to use our weather pages